• In Czech Republic
  • List of Countries
  • For 7 days
  • Water Temperature
  • Satellite Maps
  • Weather Map
  • Weather Widgets
  • user-avatar
    Login

    Hourly Weather Takeo

    Today, 16 December, Saturday

    Time Temperature Precipitation Wind Pressure Humidity
    00:00 +27°C° 0 mm 2 mps 758 mmHg 72%
    01:00 +26°C° 0 mm 2 mps 758 mmHg 74%
    02:00 +26°C° 0 mm 2 mps 758 mmHg 76%
    03:00 +26°C° 0 mm 2 mps 758 mmHg 77%
    04:00 +25°C° 0 mm 2 mps 758 mmHg 79%
    05:00 +25°C° 0 mm 2 mps 758 mmHg 80%
    06:00 +25°C° 0 mm 2 mps 758 mmHg 82%
    07:00 +25°C° 0 mm 2 mps 759 mmHg 83%
    08:00 +27°C° 0 mm 3 mps 759 mmHg 77%
    09:00 +28°C° 0 mm 4 mps 759 mmHg 71%
    10:00 +30°C° 0 mm 4 mps 760 mmHg 64%
    11:00 +32°C° 0 mm 5 mps 759 mmHg 60%
    12:00 +33°C° 0 mm 5 mps 759 mmHg 56%
    13:00 +34°C° 0 mm 5 mps 758 mmHg 51%
    14:00 +34°C° 0 mm 5 mps 758 mmHg 51%
    15:00 +34°C° 0 mm 5 mps 757 mmHg 52%
    16:00 +34°C° 0 mm 4 mps 757 mmHg 52%
    17:00 +32°C° 0 mm 4 mps 757 mmHg 55%
    18:00 +30°C° 0 mm 4 mps 757 mmHg 59%
    19:00 +29°C° 0 mm 3 mps 758 mmHg 62%
    20:00 +28°C° 0 mm 4 mps 758 mmHg 62%
    21:00 +28°C° 0 mm 4 mps 759 mmHg 62%
    22:00 +28°C° 0 mm 4 mps 759 mmHg 63%
    23:00 +27°C° 0 mm 4 mps 759 mmHg 64%

    Tomorrow, 17 December, Sunday

    Time Temperature Precipitation Wind Pressure Humidity
    00:00 +27°C° 0 mm 4 mps 759 mmHg 66%
    01:00 +26°C° 0 mm 4 mps 760 mmHg 68%
    02:00 +26°C° 0 mm 4 mps 759 mmHg 69%
    03:00 +25°C° 0 mm 4 mps 759 mmHg 71%
    04:00 +25°C° 0 mm 4 mps 759 mmHg 72%
    05:00 +25°C° 0 mm 4 mps 759 mmHg 74%
    06:00 +23°C° 0 mm 5 mps 760 mmHg 75%
    07:00 +23°C° 0 mm 5 mps 760 mmHg 77%
    08:00 +26°C° 0 mm 6 mps 760 mmHg 72%
    09:00 +27°C° 0 mm 7 mps 761 mmHg 66%
    10:00 +29°C° 0 mm 8 mps 761 mmHg 61%
    11:00 +30°C° 0 mm 7 mps 761 mmHg 59%
    12:00 +30°C° 0 mm 7 mps 760 mmHg 56%
    13:00 +32°C° 0 mm 7 mps 759 mmHg 54%
    14:00 +32°C° 0 mm 7 mps 759 mmHg 54%
    15:00 +32°C° 0 mm 6 mps 758 mmHg 55%
    16:00 +32°C° 0 mm 6 mps 758 mmHg 56%
    17:00 +29°C° 0 mm 5 mps 758 mmHg 60%
    18:00 +28°C° 0 mm 4 mps 758 mmHg 64%
    19:00 +27°C° 0 mm 4 mps 759 mmHg 67%
    20:00 +26°C° 0 mm 4 mps 759 mmHg 68%
    21:00 +26°C° 0 mm 4 mps 760 mmHg 69%
    22:00 +25°C° 0 mm 4 mps 760 mmHg 69%
    23:00 +25°C° 0 mm 4 mps 760 mmHg 69%

    Day after tomorrow, 18 December, Monday

    Time Temperature Precipitation Wind Pressure Humidity
    00:00 +25°C° 0 mm 4 mps 760 mmHg 69%
    01:00 +23°C° 0 mm 4 mps 760 mmHg 69%
    02:00 +23°C° 0 mm 4 mps 760 mmHg 69%
    03:00 +22°C° 0 mm 4 mps 759 mmHg 69%
    04:00 +22°C° 0 mm 4 mps 759 mmHg 69%
    05:00 +22°C° 0 mm 5 mps 759 mmHg 70%
    06:00 +21°C° 0 mm 5 mps 760 mmHg 72%
    07:00 +21°C° 0 mm 5 mps 760 mmHg 74%
    08:00 +22°C° 0 mm 6 mps 761 mmHg 69%
    09:00 +24°C° 0 mm 7 mps 761 mmHg 64%
    10:00 +27°C° 0 mm 8 mps 761 mmHg 58%
    11:00 +28°C° 0 mm 8 mps 761 mmHg 56%
    12:00 +29°C° 0 mm 8 mps 760 mmHg 54%
    13:00 +30°C° 0 mm 7 mps 759 mmHg 52%
    14:00 +30°C° 0 mm 7 mps 758 mmHg 52%
    15:00 +30°C° 0 mm 7 mps 758 mmHg 53%
    16:00 +30°C° 0 mm 6 mps 757 mmHg 53%
    17:00 +28°C° 0 mm 6 mps 758 mmHg 58%
    18:00 +27°C° 0 mm 5 mps 758 mmHg 62%
    19:00 +25°C° 0 mm 4 mps 759 mmHg 67%
    20:00 +25°C° 0 mm 4 mps 759 mmHg 67%
    21:00 +23°C° 0 mm 4 mps 760 mmHg 68%
    22:00 +23°C° 0 mm 4 mps 760 mmHg 69%
    23:00 +23°C° 0 mm 4 mps 760 mmHg 70%

    19 December, Tuesday

    Time Temperature Precipitation Wind Pressure Humidity
    00:00 +22°C° 0 mm 4 mps 760 mmHg 70%
    01:00 +22°C° 0 mm 4 mps 760 mmHg 70%
    02:00 +22°C° 0 mm 5 mps 759 mmHg 71%
    03:00 +21°C° 0 mm 5 mps 759 mmHg 71%
    04:00 +21°C° 0 mm 5 mps 759 mmHg 72%
    05:00 +21°C° 0 mm 5 mps 759 mmHg 73%
    06:00 +20°C° 0 mm 5 mps 760 mmHg 73%
    07:00 +20°C° 0 mm 5 mps 760 mmHg 74%
    08:00 +22°C° 0 mm 6 mps 761 mmHg 69%
    09:00 +24°C° 0 mm 7 mps 761 mmHg 64%
    10:00 +26°C° 0 mm 8 mps 761 mmHg 59%
    11:00 +27°C° 0 mm 8 mps 760 mmHg 57%
    12:00 +28°C° 0 mm 8 mps 759 mmHg 55%
    13:00 +29°C° 0 mm 7 mps 759 mmHg 52%
    14:00 +29°C° 0 mm 7 mps 758 mmHg 53%
    15:00 +29°C° 0 mm 7 mps 758 mmHg 53%
    16:00 +29°C° 0 mm 6 mps 757 mmHg 53%
    17:00 +28°C° 0 mm 5 mps 758 mmHg 57%
    18:00 +26°C° 0 mm 5 mps 758 mmHg 61%
    19:00 +25°C° 0 mm 4 mps 759 mmHg 65%
    20:00 +23°C° 0 mm 4 mps 759 mmHg 65%
    21:00 +23°C° 0 mm 4 mps 760 mmHg 65%
    22:00 +22°C° 0 mm 4 mps 760 mmHg 65%
    23:00 +22°C° 0 mm 4 mps 760 mmHg 65%

    20 December, Wednesday

    Time Temperature Precipitation Wind Pressure Humidity
    00:00 +22°C° 0 mm 5 mps 760 mmHg 65%
    01:00 +21°C° 0 mm 6 mps 759 mmHg 65%
    02:00 +21°C° 0 mm 6 mps 759 mmHg 65%
    03:00 +20°C° 0 mm 6 mps 760 mmHg 64%
    04:00 +20°C° 0 mm 6 mps 760 mmHg 64%
    05:00 +19°C° 0 mm 6 mps 760 mmHg 66%
    06:00 +19°C° 0 mm 6 mps 760 mmHg 67%
    07:00 +19°C° 0 mm 6 mps 761 mmHg 69%
    08:00 +20°C° 0 mm 6 mps 761 mmHg 65%
    09:00 +22°C° 0 mm 7 mps 761 mmHg 62%
    10:00 +23°C° 0 mm 8 mps 762 mmHg 58%
    11:00 +24°C° 0 mm 8 mps 761 mmHg 56%
    12:00 +26°C° 0 mm 8 mps 760 mmHg 55%
    13:00 +27°C° 0 mm 8 mps 759 mmHg 53%
    14:00 +27°C° 0 mm 7 mps 759 mmHg 54%
    15:00 +27°C° 0 mm 7 mps 758 mmHg 55%
    16:00 +26°C° 0 mm 7 mps 758 mmHg 56%
    17:00 +26°C° 0 mm 6 mps 759 mmHg 57%
    18:00 +24°C° 0 mm 6 mps 759 mmHg 58%
    19:00 +23°C° 0 mm 5 mps 760 mmHg 59%
    20:00 +23°C° 0 mm 5 mps 760 mmHg 58%
    21:00 +22°C° 0 mm 5 mps 760 mmHg 58%
    22:00 +22°C° 0 mm 4 mps 760 mmHg 57%
    23:00 +22°C° 0 mm 5 mps 760 mmHg 58%

    21 December, Thursday

    Time Temperature Precipitation Wind Pressure Humidity
    00:00 +22°C° 0 mm 5 mps 759 mmHg 59%
    01:00 +22°C° 0 mm 5 mps 759 mmHg 60%
    02:00 +21°C° 0 mm 5 mps 759 mmHg 60%
    03:00 +21°C° 0 mm 6 mps 759 mmHg 61%
    04:00 +20°C° 0 mm 6 mps 758 mmHg 62%
    05:00 +20°C° 0 mm 6 mps 759 mmHg 63%
    06:00 +20°C° 0 mm 7 mps 759 mmHg 63%
    07:00 +18°C° 0 mm 7 mps 760 mmHg 64%
    08:00 +21°C° 0 mm 7 mps 760 mmHg 61%
    09:00 +22°C° 0 mm 8 mps 760 mmHg 58%
    10:00 +24°C° 0 mm 8 mps 760 mmHg 55%
    11:00 +24°C° 0 mm 8 mps 759 mmHg 54%
    12:00 +26°C° 0 mm 8 mps 758 mmHg 52%
    13:00 +27°C° 0 mm 7 mps 758 mmHg 51%
    14:00 +26°C° 0 mm 6 mps 757 mmHg 54%
    15:00 +26°C° 0 mm 5 mps 757 mmHg 58%
    16:00 +25°C° 0 mm 4 mps 757 mmHg 61%
    17:00 +23°C° 0 mm 4 mps 757 mmHg 61%
    18:00 +23°C° 0 mm 4 mps 757 mmHg 61%
    19:00 +23°C° 0 mm 4 mps 758 mmHg 61%
    20:00 +23°C° 0.2 mm 4 mps 758 mmHg 62%
    21:00 +23°C° 0.2 mm 4 mps 758 mmHg 63%
    22:00 +23°C° 0.2 mm 4 mps 758 mmHg 64%
    23:00 +22°C° 0.2 mm 4 mps 758 mmHg 64%
    Show more